Regional Weather Roundup
Issued by NWS

Home | Current Version | Previous Version | Graphics & Text | Print | Product List | Glossary On
Versions: 1 2 3 4 5 6 7 8 9 10 11 12 13 14 15 16 17 18 19 20 21 22 23 24 25 26 27 28 29 30 31 32 33 34 35 36 37 38 39 40 41 42 43 44 45 46 47 48 49 50
362
ASUS43 KLSX 312310
RWRMO

WEATHER SUMMARY FOR MISSOURI
NATIONAL WEATHER SERVICE SPRINGFIELD MO
600 PM CDT TUE MAY 31 2016

NOTE: "FAIR" INDICATES FEW OR NO CLOUDS BELOW 12,000 FEET WITH NO
       SIGNIFICANT WEATHER AND/OR OBSTRUCTIONS TO VISIBILITY.
       CURRENT SKY AND/OR WEATHER CONDITIONS ARE NOT AVAILABLE FOR
       CHILLICOTHE AND FARMINGTON.

MOZ001>031-035>038-043-044-053-054-010000-
...NORTHERN AND WESTERN MISSOURI...

CITY           SKY/WX    TMP DP  RH WIND       PRES   REMARKS
KANSAS CTY INT CLOUDY    75  64  68 SW5       29.89F
KANSAS C DTWN  CLOUDY    76  65  68 NW5       29.87F
LEE`S SUMMIT   CLOUDY    76  63  64 NW3       29.89S
ST JOSEPH      MOSUNNY   78  63  59 SW7       29.88F
CHILLICOTHE      N/A     80  67  64 VRB3      29.88F
KIRKSVILLE     MOSUNNY   78  63  59 S7        29.89S

$$
MOZ066>068-077>081-088>096-101>105-010000-
...SOUTHWEST MISSOURI...

CITY           SKY/WX    TMP DP  RH WIND       PRES   REMARKS
SPRINGFIELD    SUNNY     77  63  61 S6        29.87F
JOPLIN         PTSUNNY   71  65  81 SE6       29.88F
BRANSON        PTSUNNY   77  66  69 S6        29.91F

$$
MOZ032>034-039>042-045>050-055>058-069>072-010000-
...CENTRAL MISSOURI...

CITY           SKY/WX    TMP DP  RH WIND       PRES   REMARKS
COLUMBIA       PTSUNNY   81  64  56 SW8       29.87F
JEFFERSON CITY MOSUNNY   81  64  56 S8        29.86S
ROLLA          SUNNY     79  65  62 S6        29.88S
SEDALIA        SUNNY     81  64  56 SW7       29.88F
WHITEMAN AFB   PTSUNNY   77  64  63 SW6       29.87F
WARRENSBURG    CLOUDY    77  64  65 SW3       29.88F

$$
MOZ051-052-059>065-010000-
...EAST CENTRAL MISSOURI...

CITY           SKY/WX    TMP DP  RH WIND       PRES   REMARKS
ST LOUIS INTL  MOSUNNY   85  60  42 S9        29.87F
SPIRIT OF STL  MOSUNNY   83  64  52 VRB3      29.86F
ST CHARLES     SUNNY     83  63  50 S6        29.86F

$$
MOZ072>076-082>087-097>100-106>115-010000-
...SOUTH CENTRAL AND SOUTHEAST MISSOURI...

CITY           SKY/WX    TMP DP  RH WIND       PRES   REMARKS
CAPE GIRARDEAU SUNNY     83  62  49 CALM      29.86F
FARMINGTON     PTSUNNY   80  67  64 SE8       29.89F
POPLAR BLUFF   MOSUNNY   80  67  64 SE5       29.86F
WEST PLAINS    CLOUDY    79  64  60 VRB6      29.91R

$$




USA.gov is the U.S. government's official web portal to all federal, state and local government web resources and services.